Home > Weather > Horn > Past weeks

Flag for Austria Past Weather in Horn, Lower Austria, Austria — Yesterday and Last 2 Weeks

Now
74 °F

Mild.


Feels Like: 77 °F
Forecast: 60 / 79 °F
Wind: 3 mph from East

Location: Retz

Current Time: May 28, 2016 at 11:55:44 AM

Latest Report: May 28, 2016 at 11:00 AM


Visibility: N/A

Pressure: 29.91 "Hg

Humidity: 61%

Dew Point: 60 °F

Location of HornLocation

Past Weather in Horn — Graph

°F

Horn Temperature Yesterday

Maximum temperature yesterday: 74 °F (at 4:00 PM)
Minimum temperature yesterday: 56 °F (at 5:00 AM)
Average temperature yesterday: 66 °F

High & Low Weather Summary for the Past Weeks

 TemperatureHumidityPressure
High77 °F (May 22, 2:00 PM)96% (May 24, 10:00 AM)30.13 "Hg (May 24, 10:00 AM)
Low42 °F (May 16, 3:00 AM)31% (May 18, 3:00 PM)29.32 "Hg (May 13, 10:00 AM)
Average59 °F67%29.89 "Hg
* Reported May 13 10:00 AM — May 28 10:00 AM, Horn, Weather by CustomWeather, © 2016

Note: Actual official high and low records may vary slightly from our data, if they occured in-between our weather recording intervals... More about our weather records

Advertising

Horn Weather History for the Previous 24 Hours

Scroll right to see more
 ConditionsComfort  
Time TempWeatherWind HumidityBarometerVisibility
10:00 AM
Sat, May 28
69 °FMild.1 mph71%29.93 "HgN/A
9:00 AM66 °FMild.1 mph74%29.94 "HgN/A
7:00 AM62 °FPassing clouds.5 mph84%29.93 "Hg4 mi
6:00 AM60 °FCool.2 mph85%29.94 "HgN/A
5:00 AM60 °FCool.2 mph85%29.95 "HgN/A
4:00 AM61 °FCool.3 mph83%29.95 "HgN/A
3:00 AM62 °FCool.3 mph82%29.94 "HgN/A
2:00 AM63 °FMild.2 mph83%29.95 "HgN/A
1:00 AM64 °FMild.3 mph80%29.94 "HgN/A
12:00 AM65 °FMild.3 mph81%29.96 "HgN/A
11:00 PM
Fri, May 27
66 °FMild.3 mph77%29.94 "HgN/A
10:00 PM68 °FMild.3 mph74%29.95 "HgN/A
9:00 PM69 °FMild.2 mph72%29.92 "HgN/A
8:00 PM71 °FPartly sunny.2 mph70%29.93 "Hg11 mi
7:00 PM72 °FMild.2 mph68%29.93 "HgN/A
6:00 PM73 °FMild.1 mph63%29.95 "HgN/A
5:00 PM73 °FMild.3 mph61%29.94 "HgN/A
4:00 PM74 °FMild.3 mph56%29.94 "HgN/A
3:00 PM74 °FMild.5 mph55%29.95 "HgN/A
2:00 PM74 °FPartly sunny.3 mph58%29.96 "Hg11 mi
1:00 PM72 °FMild.3 mph57%29.98 "HgN/A
11:00 AM69 °FMild.3 mph69%30.00 "HgN/A
Weather by CustomWeather, © 2016

See weather overviewHow to use our weather pages